Regional Weather Roundup
Issued by NWS San Angelo, TX

Home | Current Version | Previous Version | Text Only | Print | Product List | Glossary On
Versions: 1 2 3 4 5 6 7 8 9 10 11 12 13 14 15 16 17 18 19 20 21 22 23 24 25 26 27 28 29 30 31 32 33 34 35 36 37 38 39 40 41 42 43 44 45 46 47 48 49 50
000
ASUS44 KSJT 251710
RWRSJT
WEST CENTRAL TEXAS REGIONAL WEATHER ROUNDUP
NATIONAL WEATHER SERVICE SAN ANGELO TX
1100 AM CST SAT FEB 25 2017

NOTE: "FAIR" INDICATES FEW OR NO CLOUDS BELOW 12,000 FEET WITH NO
SIGNIFICANT WEATHER AND/OR OBSTRUCTIONS TO VISIBILITY.

TXZ049-054-064>066-071>073-076>078-098-099-113-114-127-128-139-140-
154-155-168>170-251800
...LOCATIONS ACROSS WEST CENTRAL TEXAS...

CITY           SKY/WX    TMP DP  RH WIND       PRES   REMARKS
SAN ANGELO     SUNNY     45  25  45 E12       30.23F WCI  39
ABILENE        SUNNY     42  21  43 E8        30.25F WCI  37
DYESS AFB      SUNNY     42  23  45 NE7       30.23F WCI  38
JUNCTION       SUNNY     48  27  44 NE8       30.21F
SWEETWATER     SUNNY     41  19  41 E9        30.25F WCI  36
BROWNWOOD      SUNNY     46  23  39 NE9       30.25F
COLEMAN        SUNNY     46  20  35 E7        30.25S
SONORA         SUNNY     48  25  40 E9        30.23F
OZONA          FAIR      48  27  43 MISG      30.21F
BRADY          NOT AVBL
$$

TEXAS PANHANDLE/OKLAHOMA PANHANDLE

CITY           SKY/WX    TMP DP  RH WIND       PRES   REMARKS
AMARILLO       SUNNY     36  20  52 S15G21    30.14F WCI  27
BORGER         SUNNY     36  20  52 SW9       30.16F WCI  29
CANADIAN       SUNNY     35  15  44 S3        30.19F
DALHART        SUNNY     38  17  42 SW17G24   30.09F WCI  28
DUMAS          SUNNY     34  16  48 SW16      30.11F WCI  24
GUYMON         NOT AVBL
HEREFORD       SUNNY     37  21  52 S14G25    30.15F WCI  28
PAMPA          SUNNY     37  17  45 SW9       30.17F WCI  30
PERRYTON       SUNNY     35  15  43 SW8       30.15F WCI  29
$$

SOUTHERN PANHANDLE/SOUTH PLAINS/ROLLING PLAINS

CITY           SKY/WX    TMP DP  RH WIND       PRES   REMARKS
LUBBOCK        MOSUNNY   38  19  46 S9G17     30.18F WCI  31
SNYDER         SUNNY     39  19  44 E10       30.23F WCI  32
CHILDRESS      SUNNY     34  14  43 CALM      30.26F
SEMINOLE       SUNNY     41  20  43 SE10G17   30.19F WCI  35
$$

PERMIAN BASIN

CITY           SKY/WX    TMP DP  RH WIND       PRES   REMARKS
MIDLAND        SUNNY     43  21  41 E13       30.19F WCI  36
ODESSA         SUNNY     43  20  39 SE12      30.19F WCI  37
WINK           SUNNY     46  23  40 SE9       30.16F
$$

FAR WEST/SOUTHWEST MOUNTAINS/TRANS PECOS

CITY           SKY/WX    TMP DP  RH WIND       PRES   REMARKS
ALPINE         SUNNY     58   5  12 CALM      30.18S
DRYDEN           N/A     55  30  38 SE9G20    30.15F
EL PASO        SUNNY     54   6  14 SW9       30.10F
FORT STOCKTON  SUNNY     52  26  36 VRB6      30.15F
GUADALUPE PASS SUNNY     46  12  25 SW10        N/A
MARFA          SUNNY     56   5  13 W7        30.15S
PECOS          SUNNY     46  25  44 E9        30.18F
$$

DALLAS/FORT WORTH METROPLEX

CITY           SKY/WX    TMP DP  RH WIND       PRES   REMARKS
DFW AIRPORT    SUNNY     45  24  43 N9        30.28R
FTW MEACHAM    SUNNY     44  23  43 NE10      30.29S WCI  39
DAL-EXECUTIVE  SUNNY     44  24  45 N10       30.28R WCI  39
GRAND PRAIRIE  SUNNY     43  23  45 N8        30.31R WCI  38
ADDISON        SUNNY     39  23  52 N10       30.30R WCI  32
MESQUITE       SUNNY     43  25  49 NE5       30.30R
LANCASTER      SUNNY     43  25  48 N5        30.30S
$$

NORTH CENTRAL TEXAS

CITY           SKY/WX    TMP DP  RH WIND       PRES   REMARKS
SHRMAN/DENISON SUNNY     39  20  46 N6        30.30R WCI  35
GAINESVILLE    SUNNY     38  19  45 N6        30.31R WCI  34
BRIDGEPORT     SUNNY     39  24  54 N7        30.31F WCI  34
DENTON         SUNNY     40  24  53 VRB3      30.30R
WAXAHACHIE     SUNNY     44  26  48 N5        30.29R
GRANBURY       SUNNY     45  23  42 N6        30.30S
$$

WESTERN NORTH TEXAS

CITY           SKY/WX    TMP DP  RH WIND       PRES   REMARKS
WICHITA FALLS  SUNNY     36  19  50 MISG      30.30S
VERNON         SUNNY     36  13  40 NE3       30.30F
BRECKENRIDGE   SUNNY     44  22  41 NE5       30.26F
COMANCHE       SUNNY     44  24  46 NE3       30.26S
$$

CENTRAL AND SOUTH CENTRAL TEXAS

CITY           SKY/WX    TMP DP  RH WIND       PRES   REMARKS
AUSTIN/BERGSTM SUNNY     53  26  35 N18G26    30.22F
WACO           SUNNY     48  26  42 N10       30.27R
HILLSBORO      SUNNY     46  26  45 N8        30.27S
TEMPLE         SUNNY     48  24  39 N10       30.26
KILLEEN-GRAY   SUNNY     47  24  40 N10       30.25R
FORT HOOD      SUNNY     48  22  36 NE7       30.23S
GEORGETOWN     NOT AVBL
LAGO VISTA     FAIR      52  22  31 NE10      30.22F
SAN MARCOS     SUNNY     54  27  35 N15G21    30.24R
NEW BRAUNFELS  SUNNY     57  26  30 NE15      30.20S
RANDOLPH AFB   SUNNY     56  24  29 N12G18    30.19F
SAN ANTONIO    MOSUNNY   57  30  35 NE12      30.20S
STINSON        SUNNY     59  29  31 NE13G23   30.18F
PLEASANTON     NOT AVBL
LA GRANGE      SUNNY     55  31  40 NE8       30.19F
GIDDINGS       SUNNY    N/A N/A N/A N10G16    30.22S
$$

EAST TEXAS

CITY           SKY/WX    TMP DP  RH WIND       PRES   REMARKS
PARIS          SUNNY     43  19  39 W5        30.26R
CLARKSVILLE    NOT AVBL
TYLER          SUNNY     47  22  37 NE8       30.25R
LONGVIEW       SUNNY     48  25  40 VRB6      30.24R
PALESTINE      SUNNY     49  27  43 NW6       30.26S
NACOGDOCHES    SUNNY     54  27  35 N3        30.20S
$$

TEXAS HILL COUNTRY AND EDWARDS PLATEAU

CITY           SKY/WX    TMP DP  RH WIND       PRES   REMARKS
LLANO          SUNNY     50  30  46 NE6       30.28S
HORSESHOE BAY  FAIR      51  26  39 NE7       30.24F
KERRVILLE      SUNNY     51  29  42 NE3       30.20S
FREDERICKSBRG  SUNNY     49  26  41 N6        30.21S
ROCKSPRINGS    SUNNY     52  30  43 E7        30.19F
HONDO          SUNNY     60  30  32 NE15      30.18F
UVALDE         MOSUNNY   57  30  36 NE12G17   30.20R
DEL RIO        SUNNY     58  32  37 SE6       30.18S
$$

SOUTHEAST TEXAS

CITY           SKY/WX    TMP DP  RH WIND       PRES   REMARKS
COLLEGE STN    SUNNY     54  26  34 NE10      30.22S
CALDWELL       NOT AVBL
CROCKETT       SUNNY     50  27  40 N10       30.25S
BRENHAM        SUNNY     55  29  37 N7        30.21F
HUNTSVILLE     SUNNY     53  25  33 NE3       30.21S
CONROE         SUNNY     56  26  31 NE9       30.19S
HOUSTON BUSH   SUNNY     60  30  32 N13G22    30.17S
HOUSTON HOBBY  SUNNY     60  31  33 N14       30.16S
PERLAND        SUNNY     61  28  28 NE13      30.17S
WHARTON        SUNNY     58  31  35 N12       30.19R
$$

THE UPPER TEXAS COAST

CITY           SKY/WX    TMP DP  RH WIND       PRES   REMARKS
ORANGE         SUNNY     59  34  39 N12       30.16F
PORT ARTHUR    SUNNY     62  32  32 N14       30.13F
GALVESTON      SUNNY     61  39  44 N14       30.16R
ANGLETON       SUNNY     61  35  37 NE12G17   30.16R
BAY CITY       SUNNY     61  36  39 N10       30.16S
$$

TEXAS COASTAL BEND, RIO GRANDE PLAINS DEEP SOUTH TEXAS

CITY           SKY/WX    TMP DP  RH WIND       PRES   REMARKS
VICTORIA       SUNNY     61  35  37 N12G21    30.17F
BEEVILLE       FAIR      61  36  38 NE15G22   30.16S
ROCKPORT       SUNNY     63  36  36 NE18      30.15S
PORT ARANSAS   SUNNY     62  42  49 NE18G26   30.14S
PORT LAVACA    SUNNY     59  40  49 NE17      30.18R
CORPUS CHRISTI SUNNY     64  40  41 NE17      30.15R
KINGSVILLE NAS SUNNY     66  43  43 NE16      30.15S
COTULLA        MOSUNNY   62  27  26 E12       30.18R
LAREDO         SUNNY     61  34  36 NE10G16   30.18S
BROWNSVILLE    MOSUNNY   75  57  53 NE16G23   30.09S
PORT ISABEL    SUNNY     74  57  55 NE15G24   30.09S
HEBBRONVILLE   SUNNY     62  30  30 E13G21    30.16S
MCALLEN        SUNNY     74  52  46 NE12      30.12S
WESLACO        CLOUDY    73  55  52 E13G21    30.10S
FALFURRIAS     SUNNY     64  41  43 NE10G17   30.15F
EDINBURG       SUNNY     72  48  43 NE10G17   30.13S
$$




USA.gov is the U.S. government's official web portal to all federal, state and local government web resources and services.